Regional Weather Roundup
Issued by NWS

Home | Current Version | Previous Version | Graphics & Text | Print | Product List | Glossary On
Versions: 1 2 3 4 5 6 7 8 9 10 11 12 13 14 15 16 17 18 19 20 21 22 23 24 25 26 27 28 29 30 31 32 33 34 35 36 37 38 39 40 41 42 43 44 45 46 47 48 49 50
000
ASUS43 KLOT 301912
RWRIL

ILLINOIS REGIONAL WEATHER ROUNDUP
NATIONAL WEATHER SERVICE CHICAGO/ROMEOVILLE IL
200 PM CDT THU JUL 30 2015

NOTE: "FAIR" INDICATES FEW OR NO CLOUDS BELOW 12,000 FEET WITH NO
SIGNIFICANT WEATHER AND/OR OBSTRUCTIONS TO VISIBILITY.

* THESE STATIONS ARE NOT UNDER NWS QUALITY CONTROL. THEY ALSO MAY NOT
  REPORT WEATHER SUCH AS PRECIPITATION OR FOG.

ILZ001-002-007-009-015-016-024-302000-
NORTHWEST ILLINOIS

CITY           SKY/WX    TMP DP  RH WIND       PRES   REMARKS
MOLINE         SUNNY     88  59  37 W13G20    30.10F HX  87
STERLING*      SUNNY     86  63  45 W16       30.06F HX  87
SAVANNA*       SUNNY     86  57  36 W10       30.08F HX  85
$$

ILZ003-004-008-010-011-017-018-302000-
NORTH CENTRAL ILLINOIS

CITY           SKY/WX    TMP DP  RH WIND       PRES   REMARKS
ROCKFORD       MOSUNNY   87  51  28 NW16G28   30.08F HX  85
FREEPORT*      SUNNY     84  56  38 W15       30.10F HX  83
ROCHELLE*      SUNNY     84  59  42 W16       30.09F HX  84
DE KALB*       MOSUNNY   84  57  40 W15G21    30.09F HX  83
PERU*          SUNNY     84  56  39 W10       30.10F HX  83
$$

ILZ005-006-012>014-019>023-302000-
NORTHEAST ILLINOIS

CITY           SKY/WX    TMP DP  RH WIND       PRES   REMARKS
CHICAGO-OHARE  MOSUNNY   87  52  29 W15G28    30.05F HX  85
CHICAGO-MIDWAY MOSUNNY   88  52  29 NW13      30.05F HX  85
AURORA         SUNNY     85  56  37 W15G22    30.08F HX  84
LANSING*       SUNNY     87  52  30 NW14G20   30.06S HX  85
JOLIET*        SUNNY     87  56  34 NW7       30.08F HX  85
WAUKEGAN       MOSUNNY   85  58  39 NW8G17    30.03F HX  84
DUPAGE AIRPORT MOSUNNY   85  53  33 W14G24    30.06F HX  83
KANKAKEE*      SUNNY     86  58  39 W12       30.08F HX  85
WHEELING       MOSUNNY   87  52  29 NW13G24   30.06F HX  85
MORRIS*        SUNNY     84  60  43 NW16      30.07F HX  84
ROMEOVILLE*    SUNNY     85  53  33 NW14      30.07F HX  83
NORTHERLY ISL    N/A     85  49  28 W15         N/A  HX  83
$$

LMZ740>746-302000-
SOUTHERN LAKE MICHIGAN

STATION/POSITION SKY/WX   TEMP    WIND        PRES    VSBY  WAVE
                          AIR SEA DIR/SP/G                  HT/PER
                          (F)     (DEG/KT/KT) (MB)    (MI)  (FT/S)
HARRISON CRIB              81     310/ 15/ 17   N/A
BURNHAM HARBOR             86     300/  9/ 15   N/A
CALUMET HARBOR             85     270/  7/ 14   N/A
BURNS HARBOR               78     300/  3/  5 1018.6S
MICHIGAN CITY              75     230/  9/ 10   N/A
MICHIGAN CITY 6N           76 74  230/  4/  6   N/A           1/ 4
ST. JOSEPH                 75 74  270/ 10/ 12   N/A           2/ 4
$$

ILZ025>027-034>036-040-047-049-050-058-095>099-302000-
WEST-CENTRAL ILLINOIS

CITY           SKY/WX    TMP DP  RH WIND       PRES   REMARKS
QUINCY         SUNNY     86  59  39 W10       30.16F HX  85
GALESBURG*     SUNNY     85  66  52 W12       30.13S HX  88
MACOMB*        SUNNY     85  63  47 W8        30.16F HX  85
JACKSONVILLE*  SUNNY     87  61  41 NW9       30.15F HX  87
PITTSFIELD*    SUNNY     87  58  37 NW9       30.17F HX  86
$$

ILZ028>032-037-038-041>044-048-051>054-059>061-302000-
CENTRAL ILLINOIS

CITY           SKY/WX    TMP DP  RH WIND       PRES   REMARKS
PONTIAC        SUNNY     83  66  55 NW13      30.11F HX  85
BLOOMINGTON    SUNNY     86  62  44 W10       30.14F HX  86
DECATUR        SUNNY     88  61  40 NW14G20   30.13F HX  88
PEORIA         SUNNY     88  64  44 NW9       30.12F HX  89
LACON*         SUNNY     85  62  46 W10       30.10F HX  85
LINCOLN*       SUNNY     89  58  35 NW7       30.12F HX  88
SPRINGFIELD    SUNNY     87  64  46 NW7       30.14F HX  88
TAYLORVILLE    SUNNY     84  63  48 W9        30.14F HX  85
$$

ILZ033-039-045-046-055>057-062-063-302000-
EAST-CENTRAL ILLINOIS

CITY           SKY/WX    TMP DP  RH WIND       PRES   REMARKS
CHAMPAIGN      MOSUNNY   85  66  53 W8        30.13F HX  87
DANVILLE*      SUNNY     83  60  45 NW9       30.08F HX  83
RANTOUL*       SUNNY     86  63  45 NW10G18   30.12S HX  87
MATTOON        SUNNY     87  57  35 NW9G21    30.13F HX  86
PARIS*         SUNNY     85  60  41 NW10      30.12F HX  85
$$

ILZ079-100>102-302000-
SOUTHWEST ILLINOIS

CITY           SKY/WX    TMP DP  RH WIND       PRES   REMARKS
ALTON          MOSUNNY   86  63  45 NW8       30.16F HX  87
BELLEVILLE     MOSUNNY   88  61  39 NW3       30.14F HX  88
CAHOKIA*       SUNNY     91  52  26 N8        30.15F HX  88
SPARTA*        SUNNY     86  58  39 N3        30.17F HX  85
$$

ILZ064>066-069>071-074>076-080>082-084>086-088>090-092>094-302000-
SOUTH-CENTRAL ILLINOIS

CITY           SKY/WX    TMP DP  RH WIND       PRES   REMARKS
CARBONDALE     SUNNY     87  58  37 MISG      30.15F HX  86
CAIRO*         SUNNY     85  64  49 NE8       30.14F HX  86
EFFINGHAM*     SUNNY     86  55  34 W9        30.15F HX  85
MARION         MOSUNNY   86  61  42 N9        30.15F HX  86
MT. VERNON     SUNNY     86  61  42 N6        30.15S HX  86
CENTRALIA*     SUNNY     87  56  34 N5        30.15S HX  85
SALEM*         SUNNY     88  60  39 NW5       30.15F HX  87
METROPOLIS*    SUNNY     85  63  46 N8        30.15S HX  86
$$

ILZ067-068-072-073-078-083-087-091-302000-
SOUTHEAST ILLINOIS

CITY           SKY/WX    TMP DP  RH WIND       PRES   REMARKS
LAWRENCEVILLE  SUNNY     87  61  41 NW8       30.12F HX  87
FLORA*         SUNNY     85  61  43 NW7       30.14F HX  85
FAIRFIELD*     SUNNY     85  62  45 N5        30.13F HX  86
HARRISBURG*    SUNNY     85  61  43 N8        30.15F HX  85
ROBINSON*      SUNNY     85  59  40 NW7       30.13F HX  84
CARMI*         SUNNY     85  56  37 CALM      30.13S HX  84
$$

ABBREVIATIONS USED IN REMARKS
   TC - TEMPERATURE IN CELSIUS
  WCI - WIND CHILL INDEX
   HX - HEAT INDEX
  VSB - VISIBILITY
$$



USA.gov is the U.S. government's official web portal to all federal, state and local government web resources and services.